TimeCDT,TemperatureF,Dew PointF,Humidity,Sea Level PressureIn,VisibilityMPH,Wind Direction,Wind SpeedMPH,Gust SpeedMPH,PrecipitationIn,Events,Conditions,WindDirDegrees,DateUTC
12:15 AM,53.6,46.4,77,30.05,10.0,Calm,Calm,-,N/A,,Clear,0,2013-07-01 05:15:00
12:35 AM,51.8,46.4,82,30.05,10.0,Calm,Calm,-,N/A,,Clear,0,2013-07-01 05:35:00
12:55 AM,53.6,44.6,72,30.05,10.0,Calm,Calm,-,N/A,,Clear,0,2013-07-01 05:55:00
1:15 AM,51.8,46.4,82,30.06,10.0,Calm,Calm,-,N/A,,Clear,0,2013-07-01 06:15:00
1:35 AM,55.4,42.8,63,30.05,10.0,North,3.5,-,N/A,,Clear,360,2013-07-01 06:35:00
1:55 AM,55.4,41.0,58,30.05,10.0,North,3.5,-,N/A,,Clear,350,2013-07-01 06:55:00
2:15 AM,55.4,41.0,58,30.05,10.0,North,3.5,-,N/A,,Clear,360,2013-07-01 07:15:00
2:35 AM,57.2,41.0,55,30.05,10.0,NNE,3.5,-,N/A,,Clear,30,2013-07-01 07:35:00
2:55 AM,57.2,41.0,55,30.05,10.0,NNE,4.6,-,N/A,,Clear,20,2013-07-01 07:55:00
3:15 AM,59.0,41.0,51,30.06,10.0,NE,5.8,-,N/A,,Clear,40,2013-07-01 08:15:00
3:35 AM,57.2,41.0,55,30.07,10.0,NE,5.8,-,N/A,,Clear,40,2013-07-01 08:35:00
3:55 AM,57.2,42.8,59,30.07,10.0,NNE,5.8,-,N/A,,Clear,20,2013-07-01 08:55:00
4:15 AM,55.4,42.8,63,30.08,10.0,Calm,Calm,-,N/A,,Clear,0,2013-07-01 09:15:00
4:35 AM,55.4,42.8,63,30.08,10.0,Calm,Calm,-,N/A,,Clear,0,2013-07-01 09:35:00
4:55 AM,55.4,44.6,67,30.08,10.0,NE,5.8,-,N/A,,Clear,40,2013-07-01 09:55:00
5:15 AM,55.4,44.6,67,30.09,10.0,Calm,Calm,-,N/A,,Clear,0,2013-07-01 10:15:00
5:35 AM,55.4,44.6,67,30.09,10.0,NNE,3.5,-,N/A,,Clear,30,2013-07-01 10:35:00
5:55 AM,55.4,44.6,67,30.09,10.0,NNE,4.6,-,N/A,,Clear,30,2013-07-01 10:55:00
6:15 AM,57.2,44.6,63,30.09,10.0,Calm,Calm,-,N/A,,Clear,0,2013-07-01 11:15:00
6:35 AM,57.2,46.4,67,30.10,10.0,NNE,3.5,-,N/A,,Clear,20,2013-07-01 11:35:00
6:55 AM,59.0,46.4,63,30.10,10.0,Calm,Calm,-,N/A,,Clear,0,2013-07-01 11:55:00
7:15 AM,60.8,46.4,59,30.10,10.0,North,6.9,-,N/A,,Clear,10,2013-07-01 12:15:00
7:35 AM,62.6,46.4,55,30.10,10.0,North,3.5,-,N/A,,Clear,10,2013-07-01 12:35:00
8:35 AM,64.4,46.4,52,30.12,10.0,NNE,6.9,-,N/A,,Clear,30,2013-07-01 13:35:00
8:55 AM,64.4,46.4,52,30.12,10.0,NNE,10.4,-,N/A,,Clear,30,2013-07-01 13:55:00
9:15 AM,66.2,46.4,49,30.12,10.0,NE,6.9,-,N/A,,Clear,40,2013-07-01 14:15:00
9:35 AM,68.0,46.4,46,30.13,10.0,NE,8.1,-,N/A,,Clear,40,2013-07-01 14:35:00
9:55 AM,68.0,46.4,46,30.13,10.0,NNE,8.1,-,N/A,,Clear,20,2013-07-01 14:55:00
10:15 AM,69.8,48.2,46,30.13,10.0,NNE,6.9,-,N/A,,Clear,30,2013-07-01 15:15:00
10:35 AM,69.8,46.4,43,30.13,10.0,NNE,10.4,16.1,N/A,,Clear,30,2013-07-01 15:35:00
10:55 AM,71.6,46.4,41,30.13,10.0,NE,8.1,-,N/A,,Clear,40,2013-07-01 15:55:00
11:15 AM,71.6,48.2,43,30.13,10.0,NE,9.2,-,N/A,,Clear,50,2013-07-01 16:15:00
11:35 AM,71.6,48.2,43,30.13,10.0,NE,12.7,16.1,N/A,,Clear,50,2013-07-01 16:35:00
11:55 AM,73.4,48.2,41,30.13,10.0,NNE,10.4,-,N/A,,Clear,20,2013-07-01 16:55:00
12:15 PM,73.4,46.4,38,30.12,10.0,NE,9.2,-,N/A,,Clear,50,2013-07-01 17:15:00
12:35 PM,73.4,44.6,36,30.12,10.0,NE,11.5,17.3,N/A,,Clear,50,2013-07-01 17:35:00
12:55 PM,75.2,44.6,34,30.12,10.0,ENE,13.8,-,N/A,,Clear,70,2013-07-01 17:55:00
1:15 PM,75.2,44.6,34,30.12,10.0,NE,8.1,-,N/A,,Clear,50,2013-07-01 18:15:00
1:35 PM,75.2,42.8,31,30.11,10.0,NE,12.7,17.3,N/A,,Clear,50,2013-07-01 18:35:00
1:55 PM,77.0,42.8,29,30.11,10.0,ENE,11.5,19.6,N/A,,Clear,60,2013-07-01 18:55:00
2:15 PM,77.0,41.0,28,30.12,10.0,ENE,12.7,21.9,N/A,,Clear,60,2013-07-01 19:15:00
2:35 PM,77.0,42.8,29,30.11,10.0,ENE,12.7,18.4,N/A,,Clear,70,2013-07-01 19:35:00
2:55 PM,77.0,41.0,28,30.11,10.0,ENE,12.7,20.7,N/A,,Clear,70,2013-07-01 19:55:00
3:15 PM,77.0,42.8,29,30.11,10.0,ENE,16.1,20.7,N/A,,Clear,60,2013-07-01 20:15:00
3:35 PM,77.0,42.8,29,30.11,10.0,ENE,12.7,18.4,N/A,,Clear,60,2013-07-01 20:35:00
3:55 PM,77.0,42.8,29,30.11,10.0,NE,11.5,20.7,N/A,,Clear,40,2013-07-01 20:55:00
4:15 PM,77.0,42.8,29,30.11,10.0,NE,11.5,20.7,N/A,,Clear,50,2013-07-01 21:15:00
4:35 PM,77.0,42.8,29,30.11,10.0,NE,10.4,18.4,N/A,,Clear,40,2013-07-01 21:35:00
4:55 PM,77.0,41.0,28,30.11,10.0,NNE,10.4,-,N/A,,Clear,30,2013-07-01 21:55:00
5:35 PM,77.0,41.0,28,30.11,10.0,NNE,9.2,16.1,N/A,,Clear,30,2013-07-01 22:35:00
5:55 PM,75.2,41.0,29,30.11,10.0,NE,11.5,-,N/A,,Clear,40,2013-07-01 22:55:00
6:15 PM,75.2,41.0,29,30.11,10.0,NNE,11.5,17.3,N/A,,Clear,30,2013-07-01 23:15:00
6:35 PM,73.4,42.8,33,30.11,10.0,NNE,10.4,-,N/A,,Clear,20,2013-07-01 23:35:00
6:55 PM,73.4,42.8,33,30.10,10.0,NNE,9.2,17.3,N/A,,Clear,30,2013-07-01 23:55:00
7:15 PM,71.6,42.8,35,30.11,10.0,NE,10.4,17.3,N/A,,Clear,40,2013-07-02 00:15:00
7:55 PM,69.8,46.4,43,30.11,10.0,NNE,6.9,-,N/A,,Clear,30,2013-07-02 00:55:00
8:15 PM,68.0,44.6,43,30.11,10.0,NNE,8.1,-,N/A,,Clear,30,2013-07-02 01:15:00
8:35 PM,66.2,44.6,46,30.11,10.0,NE,9.2,-,N/A,,Clear,40,2013-07-02 01:35:00
8:55 PM,64.4,46.4,52,30.11,10.0,NE,5.8,-,N/A,,Clear,40,2013-07-02 01:55:00
9:15 PM,64.4,46.4,52,30.11,10.0,NE,6.9,-,N/A,,Clear,40,2013-07-02 02:15:00
9:35 PM,62.6,46.4,55,30.11,10.0,NE,5.8,-,N/A,,Clear,40,2013-07-02 02:35:00
9:55 PM,62.6,46.4,55,30.11,10.0,North,5.8,-,N/A,,Clear,10,2013-07-02 02:55:00
10:15 PM,62.6,46.4,55,30.12,10.0,North,4.6,-,N/A,,Clear,10,2013-07-02 03:15:00
10:35 PM,62.6,46.4,55,30.12,10.0,NE,3.5,-,N/A,,Clear,40,2013-07-02 03:35:00
10:55 PM,60.8,46.4,59,30.11,10.0,North,4.6,-,N/A,,Clear,10,2013-07-02 03:55:00
11:15 PM,60.8,46.4,59,30.11,10.0,North,3.5,-,N/A,,Clear,360,2013-07-02 04:15:00
11:35 PM,60.8,46.4,59,30.12,10.0,NNE,3.5,-,N/A,,Clear,30,2013-07-02 04:35:00
11:55 PM,59.0,46.4,63,30.12,10.0,Calm,Calm,-,N/A,,Clear,0,2013-07-02 04:55:00